EW4196 Weather Reports


time (UTC)temp
C
wind
direction
speed
KPH
gust
KPH
rain 1hr
cm
rain 24hr
cm
rain mn
cm
humidity
%
barometer
mb
20260503200005 30 127 0.0 9.7 0.00 0.00 0.00 31 1013.0
20260503194502 29 131 1.6 8.0 0.00 0.00 0.00 34 1013.3
20260503193111 29 134 0.0 8.0 0.00 0.00 0.00 37 1013.5
20260503191608 29 128 1.6 9.7 0.00 0.00 0.00 36 1013.7
20260503190059 28 135 1.6 8.0 0.00 0.00 0.00 38 1014.0
20260503184606 28 178 0.0 6.4 0.00 0.00 0.00 39 1014.2
20260503183058 28 97 0.0 11.3 0.00 0.00 0.00 42 1014.5
20260503181549 27 127 1.6 9.7 0.00 0.00 0.00 41 1014.7
20260503180044 27 128 0.0 4.8 0.00 0.00 0.00 42 1015.1
20260503174539 27 131 0.0 11.3 0.00 0.00 0.00 43 1015.3
20260503173037 27 134 0.0 14.5 0.00 0.00 0.00 42 1015.7
20260503171534 26 106 0.0 8.0 0.00 0.00 0.00 45 1015.8
20260503081510 7 122 0.0 0.0 0.00 0.00 0.00 87 1018.9
20260503071555 8 122 0.0 0.0 0.00 0.00 0.00 85 1019.3
20260503054550 10 122 0.0 0.0 0.00 0.00 0.00 78 1019.5
20260503053039 10 122 0.0 0.0 0.00 0.00 0.00 77 1019.5
20260503051537 10 122 0.0 0.0 0.00 0.00 0.00 76 1019.4
20260503050037 11 122 0.0 0.0 0.00 0.00 0.00 74 1019.3
20260503044536 11 122 0.0 0.0 0.00 0.00 0.00 70 1019.3
20260503043033 11 122 0.0 0.0 0.00 0.00 0.00 68 1019.3
20260503041533 12 122 0.0 0.0 0.00 0.00 0.00 64 1019.2
20260503040036 12 122 0.0 0.0 0.00 0.00 0.00 61 1019.2
20260503034536 13 122 0.0 0.0 0.00 0.00 0.00 61 1019.3
20260503033031 13 122 0.0 0.0 0.00 0.00 0.00 59 1019.3
20260503031530 13 122 0.0 0.0 0.00 0.00 0.00 58 1019.2
20260503030030 13 122 0.0 0.0 0.00 0.00 0.00 56 1019.1
20260503024529 13 122 0.0 0.0 0.00 0.00 0.00 55 1019.0
20260503023028 14 150 0.0 0.0 0.00 0.00 0.00 56 1018.9
20260503021528 14 150 0.0 0.0 0.00 0.00 0.00 55 1018.7
20260503020028 15 150 0.0 0.0 0.00 0.00 0.00 50 1018.6
20260503014538 16 150 0.0 0.0 0.00 0.00 0.00 45 1018.5
20260503013028 17 150 0.0 0.0 0.00 0.00 0.00 42 1018.4
20260503011526 18 150 0.0 0.0 0.00 0.00 0.00 39 1018.3
20260503010025 19 150 0.0 0.0 0.00 0.00 0.00 36 1018.3
20260503004525 20 150 0.0 1.6 0.00 0.00 0.00 34 1018.2
20260503003025 20 147 0.0 1.6 0.00 0.00 0.00 34 1018.2
20260503001525 20 148 0.0 3.2 0.00 0.00 0.00 33 1018.3
20260503000023 20 148 0.0 4.8 0.00 0.00 0.00 33 1018.4
20260502234522 21 150 0.0 4.8 0.00 0.00 0.00 32 1018.4
20260502233022 21 149 0.0 4.8 0.00 0.00 0.00 31 1018.4
20260502231522 21 151 0.0 3.2 0.00 0.00 0.00 30 1018.4
20260502230021 23 172 0.0 6.4 0.00 0.00 0.00 28 1018.4
20260502224520 23 152 0.0 4.8 0.00 0.00 0.00 30 1018.4
20260502223018 22 169 0.0 4.8 0.00 0.00 0.00 29 1018.5
20260502221517 22 131 0.0 6.4 0.00 0.00 0.00 31 1018.5
20260502220019 23 156 0.0 1.6 0.00 0.00 0.00 30 1018.6
20260502214516 22 168 0.0 3.2 0.00 0.00 0.00 31 1018.8
20260502213016 22 172 0.0 8.0 0.00 0.00 0.00 32 1018.9
20260502211521 22 148 1.6 6.4 0.00 0.00 0.00 31 1019.1
20260502210013 22 177 0.0 8.0 0.00 0.00 0.00 31 1019.3
20260502204513 22 150 0.0 6.4 0.00 0.00 0.00 31 1019.5
20260502203010 22 179 0.0 3.2 0.00 0.00 0.00 32 1019.7
20260502201509 22 148 0.0 8.0 0.00 0.00 0.00 33 1019.8